This is the latest recevied weather packets stored in our database for station/object WX6HNX-2. If no packets are shown the sender has not sent any weather packets the latest 10 day(s).
| Time | Temp. | Humidity | Pressure | Rain* | Wind** | Luminosity | Snow |
|---|---|---|---|---|---|---|---|
| 1777843103 | 20° C | 65% | 1011 hPa | 0 mm | - | - | - |
| 1777842863 | 20° C | 65% | 1010.9 hPa | 0 mm | - | - | - |
| 1777842364 | 20.56° C | 65% | 1010.9 hPa | 0 mm | - | - | - |
| 1777842125 | 20.56° C | 66% | 1010.9 hPa | 0 mm | - | - | - |
| 1777841884 | 20.56° C | 66% | 1010.9 hPa | 0 mm | - | - | - |
| 1777841644 | 20° C | 68% | 1011 hPa | 0 mm | - | - | - |
| 1777841404 | 19.44° C | 69% | 1010.9 hPa | 0 mm | - | - | - |
| 1777841164 | 19.44° C | 67% | 1011 hPa | 0 mm | - | - | - |
| 1777840924 | 18.89° C | 69% | 1010.9 hPa | 0 mm | - | - | - |
| 1777840684 | 18.89° C | 67% | 1011.1 hPa | 0 mm | - | - | - |
| 1777840444 | 19.44° C | 67% | 1011.1 hPa | 0 mm | - | - | - |
| 1777840204 | 19.44° C | 68% | 1011.1 hPa | 0 mm | - | - | - |
| 1777839964 | 19.44° C | 68% | 1011.2 hPa | 0 mm | - | - | - |
| 1777839724 | 19.44° C | 69% | 1011.2 hPa | 0 mm | - | - | - |
| 1777839071 | 20° C | 66% | 1011.3 hPa | 0 mm | - | - | - |
| 1777838831 | 20° C | 66% | 1011.3 hPa | 0 mm | - | - | - |
| 1777838591 | 20.56° C | 66% | 1011.3 hPa | 0 mm | - | - | - |
| 1777838351 | 20.56° C | 65% | 1011.2 hPa | 0 mm | - | - | - |
| 1777838111 | 21.11° C | 65% | 1011.3 hPa | 0 mm | - | - | - |
| 1777837871 | 20.56° C | 67% | 1011.4 hPa | 0 mm | - | - | - |
| 1777837631 | 20.56° C | 65% | 1011.4 hPa | 0 mm | - | - | - |
| 1777837391 | 21.11° C | 67% | 1011.4 hPa | 0 mm | - | - | - |
| 1777837151 | 21.11° C | 68% | 1011.3 hPa | 0 mm | - | - | - |
| 1777836911 | 20.56° C | 70% | 1011.3 hPa | 0 mm | - | - | - |
| 1777836671 | 20.56° C | 69% | 1011.3 hPa | 0 mm | - | - | - |
* Rain latest hour (hover to see other rain measurements)
** Current wind speed in m/s (hover to see current wind gust speed)